NSS-11

Last updated on Fri Dec 19 2025 00:02:48 GMT+0000 (Coordinated Universal Time)

1 26554U 00059A 25352.55113904 .00000049 00000+0 00000+0 0 9992 2 26554 1.6593 83.5960 0002836 177.3129 200.9106 1.00271878 39484
UTC large
Height (km)
Speed (km/s)
/
Latitude / Longitude
Inclination (degrees)
Orbital Period (minutes)
Azimuth
Elevation
Range (km)
Doppler Factor

Next 0 passes for location: London (51.5072 / 0.1276)

Sorry there are no passes over London.